Location: Unspecified
(0.0000°N, 0.0000°E)
Time: 17:49:54
(UTC+00:00)

STARLINK 1035 - Pass Details

Date: 19 January 2020
Orbit: 397 x 400 km, 53.0° (Epoch: 17 January)

Event Time Altitude Azimuth Distance (km) Brightness Sun altitude
Exits shadow 04:34:38 36° 167° (SSE) 647 4.2 -22.4°
Maximum altitude 04:35:27 45° 124° (SE) 546 4.0 -22.2°
Drops below altitude 10° 04:38:32 10° 49° (NE) 1,430 6.1 -21.5°
Sets 04:40:38 0° 43° (NE) 2,284 7.1 -21.0°
